Location: Unspecified
(0.0000°N, 0.0000°E)
Time: 03:36:47
(UTC+00:00)

Vanguard 1 Rocket - Pass Details

Date: 11 December 2017
Orbit: 656 x 4221 km, 34.3° (Epoch: 22 January)

Event Time Altitude Azimuth Distance (km) Brightness Sun altitude
Exits shadow 05:15:51 - 268° (W) 7,487 11.5 -8.6°
Reaches altitude 10° 05:22:53 10° 255° (WSW) 6,107 11.1 -7.0°
Maximum altitude 05:33:15 18° 218° (SW) 4,385 10.7 -4.6°
Drops below altitude 10° 05:40:35 10° 179° (S) 4,121 11.1 -2.9°
Sets 05:44:46 0° 159° (SSE) 4,562 11.7 -1.9°
